Location: *
(49.9853°N, 3.5569°E)
Time: 03:53:40
(UTC+00:00)

In-Cosmos 22 - Pass Details

Date: 22 September 2019
Orbit: 785 x 877 km, 81.2° (Epoch: 15 October)

Event Time Altitude Azimuth Distance (km) Brightness Sun altitude
Rises 18:28:11 0° 350° (N) 3,310 7.6 -7.8°
Reaches altitude 10° 18:30:37 10° 356° (N) 2,385 6.7 -8.2°
Maximum altitude 18:35:52 52° 73° (ENE) 1,004 4.3 -9.0°
Drops below altitude 10° 18:41:12 10° 149° (SSE) 2,423 6.2 -9.8°
Sets 18:43:41 0° 155° (SSE) 3,366 7.0 -10.2°
